Tracking 19563 objects as of 20-Mar-2019
HD Live streaming from Space Station
objects crossing your sky now

EKRAN 2 DEB

Track EKRAN 2 DEB now!


NORAD ID: 29014
Int'l Code: 1977-092K
Perigee: 35,772.6 km
Apogee: 35,910.7 km
Inclination: 10.5 °
Period: 1,438.5 minutes
Semi major axis: 42212 km
RCS: 1 m2 (large)
Launch date: September 20, 1977
Source: Commonwealth of Independent States (former USSR) (CIS)
Launch site: TYURATAM MISSILE AND SPACE COMPLEX (TTMTR)

Note: This is SATELLITE DEBRIS
aabbcc
Your satellite tracking list
Your tracking list is empty




NASA's NSSDC Master Catalog

Two Line Element Set (TLE):
1 29014U 77092K   19077.65451015 -.00000089 +00000-0 +00000-0 0  9990
2 29014 010.5051 308.7650 0016366 276.6440 262.1343 01.00101134020767
Source of the keplerian elements: AFSPC